Location: Knowlton
(51.2333°N, 1.2667°E)
Time: 04:59:51
(UTC+00:00)

Cosmos 1140 Rocket - Pass Details

Date: 18 April 2021
Orbit: 745 x 767 km, 74.1° (Epoch: 06 May)

Event Time Altitude Azimuth Distance (km) Brightness Sun altitude
Exits shadow 21:18:30 21° 192° (SSW) 1,646 4.9 -19.1°
Maximum altitude 21:21:59 73° 111° (ESE) 782 3.3 -19.5°
Drops below altitude 10° 21:27:06 10° 28° (NNE) 2,273 6.2 -20.0°
Sets 21:29:29 0° 26° (NNE) 3,202 7.1 -20.2°
